Location: St. Louis
(38.6270°N, 90.1994°W)
Time: 06:33:44
(UTC-06:00)

Altair - Pass Details

Date: 08 December 2021
Orbit: 1501 x 1683 km, 47.2° (Epoch: 17 January)

Event Time Altitude Azimuth Distance (km) Brightness Sun altitude
Rises 15:32:40 0° 258° (WSW) 4,805 11.3 9.9°
Reaches altitude 10° 15:35:53 10° 262° (W) 3,796 10.8 9.4°
Maximum altitude 15:45:22 61° 342° (NNW) 1,726 7.9 8.0°
Drops below altitude 10° 15:54:32 10° 62° (ENE) 3,677 8.9 6.5°
Sets 15:57:37 0° 66° (ENE) 4,648 9.4 6.1°
